273  
NZUS99 KDVN 230010  
HRRRRR  
HOURLY WEATHER ROUNDUP  
NATIONAL WEATHER SERVICE QUAD CITIES IA IL  
600 PM CST WED JAN 22 2020  
 
NOTE: "FAIR" INDICATES FEW OR NO CLOUDS BELOW 12,000 FEET WITH  
NO SIGNIFICANT WEATHER AND/OR OBSTRUCTIONS TO VISIBILITY.  
------------------------------------------------------------------  
 
CITY SKY/WX TMP DP RH WIND PRES REMARKS  
BURLINGTON LGT SNOW 33 24 69 S15G25 30.04R WCI 23  
6HR MIN TEMP: 30; 6HR MAX TEMP: 33; 6HR PCP: TRACE;  
 
CEDAR RAPIDS LGT SNOW 28 27 96 SE14 29.98S VSB 1 WCI 17  
6HR MIN TEMP: 28; 6HR MAX TEMP: 30; 6HR PCP: 0.01;  
 
DAVENPORT CLOUDY 31 23 72 SE13 30.06F WCI 21  
6HR MIN TEMP: 30; 6HR MAX TEMP: 32;  
 
DUBUQUE CLOUDY 29 24 82 S15 30.01S WCI 18  
6HR MIN TEMP: 28; 6HR MAX TEMP: 29;  
 
IOWA CITY LGT SNOW 30 27 88 SE9 30.03S FOG WCI 22  
6HR MIN TEMP: 30; 6HR MAX TEMP: 33; 6HR PCP: 0.01;  
 
MOLINE CLOUDY 33 23 66 SE6 30.05S WCI 28  
6HR MIN TEMP: 31; 6HR MAX TEMP: 33;  
 
------------------------------------------------------------------  
THE STATIONS BELOW ARE NOT NWS STATIONS AND ARE NOT SUBJECT TO NWS  
QUALITY CONTROL. SOME STATIONS DO NOT REPORT WEATHER SUCH AS FOG.  
* - STATIONS THAT REPORT TMP AND DP IN WHOLE DEGREES CELSIUS, WHICH  
ARE THEN CONVERTED TO FAHRENHEIT.  
------------------------------------------------------------------  
 
CITY SKY/WX TMP DP RH WIND PRES REMARKS  
CLINTON CLOUDY 30 25 81 SE14 30.07R WCI 19  
6HR MIN TEMP: 30; 6HR MAX TEMP: 31;  
 
FAIRFIELD * CLOUDY 30 30 100 SE14 29.99S FOG WCI 20  
FORT MADISON * MIX PCPN 30 28 93 S9 30.05R WCI 22  
FREEPORT MOCLDY 30 25 81 S14 30.09S WCI 19  
6HR MIN TEMP: 27; 6HR MAX TEMP: 30;  
 
INDEPENDENCE LGT SNOW 29 28 97 SE15 29.96R WCI 18  
KEOKUK * NOT AVBL  
MACOMB CLOUDY 33 24 70 S20G28 30.09R WCI 21  
6HR MIN TEMP: 29; 6HR MAX TEMP: 33;  
 
MONTICELLO * MIX PCPN 28 28 100 SE12G18 30.01S WCI 18  
MT PLEASANT * LGT RAIN 32 30 93 S14 30.03R WCI 22  
MUSCATINE * CLOUDY 34 25 69 SE9 30.05R WCI 26  
SAVANNA * CLOUDY 32 27 80 S14 30.07S WCI 22  
STERLING/R.F. CLOUDY 32 25 75 SE7 30.09S WCI 26  
6HR MIN TEMP: 31; 6HR MAX TEMP: 33;  
 
VINTON LGT SNOW 31 29 92 SE12G18 29.98R WCI 21  
6HR MIN TEMP: 31; 6HR MAX TEMP: 33;  
 
WASHINGTON * MIX PCPN 30 30 100 S13 30.00R WCI 20  
------------------------------------------------------------------  
 
 
CLICK HERE TO GO TO PREVIOUS BULLETINS.

The Nexlab IL Page
The Nexlab IA Page
The Nexlab MO Page Main Text Page